Location: Bijele Vode
(45.2833°N, 16.2000°E)
Time: 09:47:51
(UTC+00:00)

CZ-2C R/B - Pass Details

Date: 21 January 2021
Orbit: 390 x 584 km, 35.0° (Epoch: 27 February)

Event Time Altitude Azimuth Distance (km) Brightness Sun altitude
Exits shadow 04:42:56 - 210° (SSW) 1,980 4.0 -18.0°
Reaches altitude 10° 04:43:45 10° 201° (SSW) 1,775 3.8 -17.9°
Maximum altitude 04:46:00 14° 168° (SSE) 1,484 3.8 -17.5°
Drops below altitude 10° 04:48:12 10° 134° (SE) 1,712 4.7 -17.1°
Sets 04:51:09 0° 109° (ESE) 2,547 6.5 -16.6°
